Location: Newark
(41.0400°S, 62.7845°W)
Time: 14:22:51
(UTC+00:00)

STARLINK-3086 - Pass Details

Date: 05 June 2022
Orbit: 570 x 574 km, 70.0° (Epoch: 04 July)

Event Time Altitude Azimuth Distance (km) Brightness Sun altitude
Rises 21:19:25 0° 221° (SW) 2,809 7.5 -5.8°
Reaches altitude 10° 21:22:08 10° 238° (WSW) 1,901 6.9 -6.3°
Maximum altitude 21:25:10 19° 284° (WNW) 1,386 7.0 -6.8°
Drops below altitude 10° 21:28:12 10° 330° (NNW) 1,881 7.3 -7.3°
Sets 21:30:52 0° 347° (NNW) 2,769 7.8 -7.8°
